When you browse on this site, cookies collect data to enhance your experience and personalize the content and advertising you see.
Visit our Privacy Policy to learn more. By continuing to use the site, you agree to this use of cookies and data.
  • In Belgien
  • Länderverzeichnis
  • Für 7 Tage
  • Wassertemperatur
  • Satellitenkarten
  • Wetterkarte
  • Widgets
  • user-avatar
    Anmelden

    Stündliche Wetter Motschudi

    Heute, 26 Mai, Sonntag

    Zeit Temperatur Niederschläge Wind Luftdruck Luftfeuchtigkeit
    00:00 +18°C° 0 mm 1 m/S 685 mmHg 46%
    01:00 +16°C° 0 mm 1 m/S 685 mmHg 47%
    02:00 +16°C° 0 mm 2 m/S 685 mmHg 49%
    03:00 +15°C° 0 mm 1 m/S 684 mmHg 51%
    04:00 +14°C° 0 mm 1 m/S 684 mmHg 53%
    05:00 +14°C° 0 mm 1 m/S 684 mmHg 55%
    06:00 +14°C° 0 mm 1 m/S 685 mmHg 54%
    07:00 +15°C° 0 mm 1 m/S 685 mmHg 53%
    08:00 +16°C° 0 mm 1 m/S 686 mmHg 50%
    09:00 +19°C° 0 mm 1 m/S 686 mmHg 45%
    10:00 +21°C° 0 mm 1 m/S 686 mmHg 40%
    11:00 +24°C° 0 mm 2 m/S 686 mmHg 34%
    12:00 +25°C° 0 mm 2 m/S 686 mmHg 31%
    13:00 +26°C° 0 mm 2 m/S 685 mmHg 27%
    14:00 +26°C° 0 mm 1 m/S 685 mmHg 26%
    15:00 +26°C° 0 mm 1 m/S 685 mmHg 26%
    16:00 +25°C° 0 mm 1 m/S 684 mmHg 26%
    17:00 +25°C° 0 mm 2 m/S 684 mmHg 26%
    18:00 +23°C° 0 mm 1 m/S 684 mmHg 29%
    19:00 +21°C° 0 mm 1 m/S 683 mmHg 33%
    20:00 +17°C° 0 mm 0 m/S 683 mmHg 36%
    21:00 +19°C° 0 mm 1 m/S 683 mmHg 37%
    22:00 +18°C° 0 mm 1 m/S 683 mmHg 38%
    23:00 +18°C° 0 mm 1 m/S 683 mmHg 39%

    Morgen, 27 Mai, Montag

    Zeit Temperatur Niederschläge Wind Luftdruck Luftfeuchtigkeit
    00:00 +16°C° 0 mm 1 m/S 683 mmHg 40%
    01:00 +16°C° 0 mm 1 m/S 683 mmHg 42%
    02:00 +14°C° 0 mm 0 m/S 683 mmHg 43%
    03:00 +15°C° 0 mm 1 m/S 683 mmHg 45%
    04:00 +14°C° 0 mm 1 m/S 683 mmHg 47%
    05:00 +14°C° 0 mm 1 m/S 683 mmHg 48%
    06:00 +14°C° 0 mm 1 m/S 683 mmHg 48%
    07:00 +14°C° 0 mm 1 m/S 684 mmHg 47%
    08:00 +15°C° 0 mm 1 m/S 684 mmHg 47%
    09:00 +18°C° 0 mm 1 m/S 684 mmHg 41%
    10:00 +21°C° 0 mm 1 m/S 685 mmHg 35%
    11:00 +24°C° 0 mm 1 m/S 686 mmHg 29%
    12:00 +25°C° 0 mm 1 m/S 685 mmHg 26%
    13:00 +26°C° 0 mm 1 m/S 685 mmHg 24%
    14:00 +25°C° 0 mm 0 m/S 684 mmHg 21%
    15:00 +26°C° 0 mm 1 m/S 684 mmHg 22%
    16:00 +26°C° 0 mm 1 m/S 683 mmHg 23%
    17:00 +25°C° 0 mm 1 m/S 683 mmHg 23%
    18:00 +23°C° 0 mm 1 m/S 683 mmHg 26%
    19:00 +22°C° 0 mm 1 m/S 683 mmHg 28%
    20:00 +20°C° 0 mm 1 m/S 683 mmHg 30%
    21:00 +20°C° 0 mm 1 m/S 683 mmHg 31%
    22:00 +19°C° 0 mm 1 m/S 683 mmHg 32%
    23:00 +19°C° 0 mm 1 m/S 683 mmHg 33%

    übermorgen, 28 Mai, Dienstag

    Zeit Temperatur Niederschläge Wind Luftdruck Luftfeuchtigkeit
    00:00 +18°C° 0 mm 1 m/S 683 mmHg 35%
    01:00 +18°C° 0 mm 1 m/S 682 mmHg 36%
    02:00 +16°C° 0 mm 1 m/S 682 mmHg 38%
    03:00 +16°C° 0 mm 1 m/S 682 mmHg 40%
    04:00 +15°C° 0 mm 1 m/S 682 mmHg 43%
    05:00 +14°C° 0 mm 1 m/S 682 mmHg 45%
    06:00 +14°C° 0 mm 1 m/S 683 mmHg 45%
    07:00 +15°C° 0 mm 1 m/S 683 mmHg 45%
    08:00 +15°C° 0 mm 1 m/S 684 mmHg 45%
    09:00 +19°C° 0 mm 1 m/S 684 mmHg 39%
    10:00 +20°C° 0 mm 2 m/S 684 mmHg 34%
    11:00 +24°C° 0 mm 2 m/S 685 mmHg 29%
    12:00 +25°C° 0 mm 2 m/S 684 mmHg 26%
    13:00 +26°C° 0 mm 1 m/S 684 mmHg 23%
    14:00 +27°C° 0 mm 1 m/S 683 mmHg 20%
    15:00 +26°C° 0 mm 1 m/S 683 mmHg 21%
    16:00 +26°C° 0 mm 1 m/S 682 mmHg 22%
    17:00 +25°C° 0 mm 1 m/S 682 mmHg 22%
    18:00 +23°C° 0 mm 1 m/S 682 mmHg 25%
    19:00 +21°C° 0 mm 1 m/S 682 mmHg 27%
    20:00 +20°C° 0 mm 1 m/S 682 mmHg 30%
    21:00 +19°C° 0 mm 1 m/S 682 mmHg 31%
    22:00 +19°C° 0 mm 1 m/S 683 mmHg 32%
    23:00 +18°C° 0 mm 1 m/S 683 mmHg 33%

    29 Mai, Mittwoch

    Zeit Temperatur Niederschläge Wind Luftdruck Luftfeuchtigkeit
    00:00 +18°C° 0 mm 1 m/S 682 mmHg 34%
    01:00 +16°C° 0 mm 1 m/S 682 mmHg 35%
    02:00 +16°C° 0 mm 1 m/S 682 mmHg 36%
    03:00 +15°C° 0 mm 1 m/S 682 mmHg 38%
    04:00 +15°C° 0 mm 1 m/S 682 mmHg 40%
    05:00 +14°C° 0 mm 1 m/S 682 mmHg 42%
    06:00 +14°C° 0 mm 1 m/S 682 mmHg 42%
    07:00 +15°C° 0 mm 1 m/S 683 mmHg 41%
    08:00 +15°C° 0 mm 1 m/S 683 mmHg 41%
    09:00 +19°C° 0 mm 1 m/S 684 mmHg 36%
    10:00 +20°C° 0 mm 2 m/S 684 mmHg 32%
    11:00 +24°C° 0 mm 2 m/S 685 mmHg 27%
    12:00 +25°C° 0 mm 2 m/S 684 mmHg 24%
    13:00 +26°C° 0 mm 2 m/S 684 mmHg 21%
    14:00 +27°C° 0 mm 2 m/S 683 mmHg 19%
    15:00 +26°C° 0 mm 2 m/S 683 mmHg 19%
    16:00 +26°C° 0 mm 2 m/S 683 mmHg 20%
    17:00 +25°C° 0 mm 1 m/S 682 mmHg 21%
    18:00 +23°C° 0 mm 1 m/S 682 mmHg 24%
    19:00 +21°C° 0 mm 1 m/S 683 mmHg 26%
    20:00 +20°C° 0 mm 1 m/S 683 mmHg 29%
    21:00 +19°C° 0 mm 1 m/S 683 mmHg 30%
    22:00 +19°C° 0 mm 1 m/S 683 mmHg 31%
    23:00 +18°C° 0 mm 1 m/S 683 mmHg 32%

    30 Mai, Donnerstag

    Zeit Temperatur Niederschläge Wind Luftdruck Luftfeuchtigkeit
    00:00 +16°C° 0 mm 1 m/S 683 mmHg 35%
    01:00 +16°C° 0 mm 1 m/S 682 mmHg 38%
    02:00 +15°C° 0 mm 1 m/S 682 mmHg 40%
    03:00 +14°C° 0 mm 1 m/S 682 mmHg 44%
    04:00 +14°C° 0 mm 1 m/S 682 mmHg 48%
    05:00 +13°C° 0 mm 1 m/S 682 mmHg 52%
    06:00 +14°C° 0 mm 1 m/S 683 mmHg 52%
    07:00 +14°C° 0 mm 2 m/S 683 mmHg 52%
    08:00 +15°C° 0 mm 2 m/S 684 mmHg 53%
    09:00 +17°C° 0 mm 2 m/S 684 mmHg 48%
    10:00 +19°C° 0 mm 3 m/S 685 mmHg 43%
    11:00 +22°C° 0 mm 4 m/S 685 mmHg 38%
    12:00 +24°C° 0 mm 3 m/S 684 mmHg 35%
    13:00 +25°C° 0 mm 3 m/S 684 mmHg 31%
    14:00 +26°C° 0 mm 3 m/S 683 mmHg 27%
    15:00 +25°C° 0 mm 3 m/S 683 mmHg 27%
    16:00 +25°C° 0 mm 2 m/S 682 mmHg 28%
    17:00 +24°C° 0 mm 2 m/S 682 mmHg 28%
    18:00 +23°C° 0 mm 2 m/S 682 mmHg 32%
    19:00 +20°C° 0 mm 2 m/S 682 mmHg 35%
    20:00 +18°C° 0 mm 2 m/S 682 mmHg 39%
    21:00 +19°C° 0 mm 1 m/S 682 mmHg 41%
    22:00 +18°C° 0 mm 1 m/S 682 mmHg 43%
    23:00 +18°C° 0 mm 1 m/S 682 mmHg 44%

    31 Mai, Freitag

    Zeit Temperatur Niederschläge Wind Luftdruck Luftfeuchtigkeit
    00:00 +16°C° 0 mm 1 m/S 682 mmHg 48%
    01:00 +15°C° 0 mm 1 m/S 682 mmHg 51%
    02:00 +15°C° 0 mm 1 m/S 681 mmHg 54%
    03:00 +14°C° 0 mm 1 m/S 681 mmHg 57%
    04:00 +14°C° 0 mm 1 m/S 681 mmHg 60%
    05:00 +13°C° 0 mm 1 m/S 681 mmHg 63%
    06:00 +14°C° 0 mm 1 m/S 681 mmHg 62%
    07:00 +14°C° 0 mm 1 m/S 682 mmHg 60%
    08:00 +15°C° 0 mm 1 m/S 682 mmHg 59%
    09:00 +18°C° 0 mm 1 m/S 682 mmHg 50%
    10:00 +21°C° 0 mm 1 m/S 683 mmHg 41%
    11:00 +24°C° 0 mm 1 m/S 683 mmHg 32%
    12:00 +25°C° 0 mm 1 m/S 683 mmHg 28%
    13:00 +27°C° 0 mm 1 m/S 682 mmHg 24%
    14:00 +28°C° 0 mm 1 m/S 681 mmHg 21%
    15:00 +27°C° 0 mm 1 m/S 681 mmHg 21%
    16:00 +26°C° 0 mm 1 m/S 681 mmHg 22%
    17:00 +26°C° 0 mm 1 m/S 680 mmHg 22%
    18:00 +24°C° 0 mm 1 m/S 680 mmHg 25%
    19:00 +22°C° 0 mm 1 m/S 680 mmHg 27%
    20:00 +20°C° 0 mm 2 m/S 680 mmHg 30%
    21:00 +19°C° 0 mm 2 m/S 680 mmHg 30%
    22:00 +19°C° 0 mm 2 m/S 680 mmHg 31%
    23:00 +19°C° 0 mm 2 m/S 680 mmHg 31%
    Mehr zeigen